Wind_Speed
26 26 25 24 23 23 23 22 22 21 20 19 17 15 13 12 11 10 9 7 6 5 5 4 4 3 3 3 2 2 2 2 2 2 3 3 4 5 5 6 7 8 9
28 27 27 26 26 25 25 25 24 23 23 21 19 17 16 14 13 12 11 9 8 7 6 6 5 5 4 4 4 3 3 3 3 3 3 4 4 5 6 7 7 8 9
30 29 29 28 27 27 26 26 25 25 24 23 22 20 18 17 15 14 12 11 10 9 8 7 7 6 5 5 5 5 5 5 4 4 4 5 5 6 6 7 8 9 10
32 31 30 30 29 28 28 28 27 26 26 25 24 23 21 19 18 16 14 13 12 11 9 9 8 8 7 6 6 6 6 6 6 6 6 6 6 7 7 8 8 9 10
35 34 33 32 31 30 29 29 29 28 27 26 26 25 23 22 20 18 17 15 14 13 11 10 10 9 9 8 7 7 7 7 7 7 7 7 7 8 8 9 9 10 11
38 37 35 34 33 32 32 31 30 30 29 28 27 26 25 24 22 21 19 18 16 15 14 12 12 11 10 10 9 8 8 8 8 8 8 9 9 9 9 10 10 11 12
41 40 38 37 36 34 34 33 32 31 31 30 29 28 27 26 25 23 21 20 19 17 16 15 14 13 12 12 11 10 9 9 9 10 10 10 10 10 11 11 11 12 12
44 43 41 39 38 37 36 35 34 33 32 31 30 30 29 28 26 25 24 22 21 19 18 17 16 15 14 13 13 12 11 11 11 11 11 11 11 11 12 12 12 13 14
47 46 44 43 41 39 38 37 36 35 34 33 32 31 31 29 28 27 26 25 23 22 20 19 18 17 16 15 15 14 13 13 12 12 12 12 12 13 13 13 14 14 15
48 48 47 46 44 42 41 39 38 38 36 35 34 33 32 31 30 29 28 27 25 24 22 21 20 19 18 17 17 16 15 15 14 14 14 14 14 14 14 14 15 15 15
49 49 49 48 47 45 43 42 41 39 38 38 36 35 34 33 32 31 29 28 27 26 25 23 22 21 20 19 19 18 17 16 16 16 16 15 15 16 16 16 16 16 16
50 51 51 51 50 48 46 44 43 42 40 39 38 37 36 35 34 33 32 30 29 28 27 25 24 23 22 21 20 20 19 19 18 18 18 17 17 17 18 18 17 17 18
51 52 51 52 51 50 48 47 46 44 41 40 40 39 38 37 36 34 33 32 32 31 29 28 27 26 24 23 22 22 21 21 20 20 19 19 19 19 19 19 19 19 19
50 52 52 52 52 51 50 48 47 46 44 42 41 41 40 39 37 36 35 34 34 33 32 31 30 28 27 26 25 24 23 23 22 21 21 20 20 20 20 20 21 21 21
50 52 52 53 53 52 51 50 49 48 47 45 43 43 42 41 40 39 38 36 35 35 35 33 32 31 29 28 27 26 25 24 24 23 23 22 22 21 21 21 22 22 22
51 53 53 53 53 53 52 51 50 50 48 46 45 44 44 43 42 41 40 38 37 36 36 36 35 34 32 30 29 28 27 26 26 25 24 24 24 24 23 23 23 24 24
49 51 53 54 54 54 53 52 51 51 50 49 47 46 46 44 43 42 42 41 39 39 38 38 37 36 34 32 31 31 30 29 28 27 26 26 26 26 26 26 26 26 26
48 50 53 54 55 55 54 53 52 52 51 50 49 48 47 46 45 45 44 44 43 41 40 40 39 38 37 35 34 33 32 31 30 29 29 29 28 28 28 29 28 28 28
43 47 50 52 53 54 54 54 53 52 53 52 51 50 49 47 47 47 46 47 45 43 42 42 41 40 39 38 37 36 35 34 33 32 32 31 31 30 30 30 30 30 30
38 41 44 47 50 52 53 54 54 52 52 52 52 51 49 48 48 48 47 47 47 46 45 43 43 42 41 41 40 39 38 36 35 35 34 34 33 33 33 32 32 32 32
33 35 38 42 46 49 50 51 52 53 53 52 52 52 51 49 49 48 49 48 48 48 46 45 44 43 42 42 42 41 40 40 39 38 37 36 36 36 35 35 34 34 33
30 31 34 39 42 44 47 48 50 52 53 53 52 53 52 51 51 49 48 48 48 48 48 47 47 46 46 44 43 44 44 43 42 41 40 40 39 39 38 37 37 36 36
28 30 32 36 39 41 44 45 47 51 53 53 52 51 52 51 50 49 49 50 49 50 50 50 50 48 48 47 47 46 46 45 44 44 43 43 42 41 40 40 40 39 39
25 28 31 33 37 40 43 45 46 48 51 52 51 51 52 51 50 51 51 52 51 52 52 52 52 50 49 49 49 48 47 47 47 46 45 44 44 43 42 42 42 41 41
24 26 28 30 34 38 41 42 44 45 47 49 50 51 51 51 51 52 52 52 53 54 54 53 53 53 51 50 50 50 49 48 48 48 46 46 46 46 46 45 45 44 44
20 23 25 27 30 34 36 39 40 42 44 46 47 49 50 50 50 51 53 53 52 53 54 54 54 54 53 52 52 52 51 50 49 49 48 48 48 48 47 47 47 47 46
Wind_Direction
248 247 245 245 245 244 243 241 240 239 239 239 239 237 236 236 236 233 228 224 221 219 217 217 220 222 228 235 236 237 247 273 288 299 304 311 315 325 337 343 347 349 352
247 246 244 243 244 244 243 242 241 241 240 240 239 239 238 237 237 238 235 231 228 225 225 225 229 231 234 241 244 244 248 262 275 287 295 302 305 314 323 331 337 339 343
246 245 244 242 242 242 243 242 242 241 241 241 240 240 240 239 238 239 239 236 234 232 230 230 232 235 237 242 246 247 251 256 267 277 286 293 297 303 311 321 328 331 335
244 243 242 241 241 241 242 241 241 242 242 241 241 240 240 241 241 241 241 239 237 236 235 235 236 238 240 242 246 249 252 255 263 273 280 285 291 297 304 312 320 324 327
242 241 241 241 240 240 241 241 241 241 241 241 240 240 240 240 241 242 242 242 240 238 238 238 238 241 243 244 246 250 252 255 261 269 275 280 286 293 299 305 312 317 321
241 240 240 240 240 240 240 240 240 240 240 241 240 240 241 241 241 242 243 243 243 241 240 240 240 242 245 246 247 250 252 255 260 266 271 276 281 287 293 299 305 311 315
240 239 238 239 239 239 239 239 239 239 239 240 240 239 240 240 241 241 242 242 244 243 242 243 243 244 245 246 247 250 252 256 260 265 269 273 278 283 289 295 301 306 311
239 238 237 237 238 239 239 240 239 239 239 239 240 239 240 240 241 241 242 242 243 244 243 244 244 245 246 246 246 248 251 254 259 264 268 271 275 281 286 291 297 302 307
238 237 236 237 237 238 239 240 240 239 239 239 239 239 239 239 240 241 242 242 243 244 244 244 245 245 247 247 247 248 250 253 256 261 265 269 274 279 283 288 293 299 304
237 237 236 236 236 237 238 238 239 240 239 239 239 239 238 238 239 240 241 241 242 243 244 245 246 246 247 248 249 249 251 253 256 259 263 267 272 276 280 285 290 295 300
236 236 235 235 235 236 237 238 238 239 239 239 239 239 238 238 239 240 240 241 241 242 243 244 245 246 247 248 250 250 251 253 256 258 261 265 270 274 277 282 286 291 296
236 235 235 235 235 235 235 236 237 238 239 238 238 239 239 238 239 240 240 240 241 242 242 243 244 246 247 248 250 251 252 254 257 258 260 264 269 272 275 279 283 288 292
236 234 234 234 234 235 235 235 236 237 238 237 238 239 239 239 238 239 240 240 241 242 242 243 244 246 247 248 250 252 253 255 257 259 260 263 266 270 274 277 280 285 290
235 234 233 234 234 234 235 235 236 236 237 238 238 238 239 239 239 240 240 240 241 242 242 243 245 246 247 249 250 252 254 255 257 259 261 263 265 269 272 276 279 283 287
236 234 233 233 233 233 234 235 236 236 236 238 238 239 239 239 239 239 240 240 241 242 243 244 244 246 247 248 250 252 254 256 257 259 261 263 265 267 270 273 277 282 285
236 234 233 233 233 233 233 235 236 236 236 237 237 238 239 240 240 240 240 240 241 243 243 244 244 245 247 248 250 252 254 255 257 258 260 262 265 267 269 271 275 280 283
237 235 233 233 233 233 233 235 236 236 236 237 237 238 239 240 240 241 240 240 241 242 243 243 244 245 246 248 249 251 253 255 256 257 259 262 264 267 268 270 273 277 280
237 235 233 233 233 233 233 234 236 236 237 237 237 237 239 240 241 241 240 241 241 242 243 243 244 245 246 248 249 251 252 254 255 256 259 262 264 266 268 270 273 275 278
237 236 234 234 233 232 233 234 236 236 237 237 237 238 238 240 241 241 240 240 240 241 242 243 244 246 247 248 249 251 252 253 255 256 259 262 264 266 269 271 272 274 277
240 237 235 235 233 232 233 233 235 235 236 236 236 237 238 239 240 242 241 240 239 240 241 242 243 245 247 248 250 250 251 253 255 256 258 261 263 266 268 270 272 274 276
239 237 236 233 233 233 233 234 234 236 235 236 236 235 237 238 239 241 242 241 240 241 241 242 242 244 247 249 250 251 251 253 254 256 258 261 263 265 267 268 270 273 275
240 239 238 236 236 235 233 234 235 234 234 236 236 235 236 239 240 240 241 241 242 241 241 242 243 244 247 249 250 251 252 253 255 256 258 260 262 264 266 267 269 271 274
243 242 241 238 237 236 235 235 235 236 236 235 235 237 237 239 240 240 242 242 242 242 243 244 244 243 245 248 249 251 252 253 255 255 257 259 261 263 265 265 267 271 272
245 246 243 240 238 237 236 236 237 236 234 234 235 237 238 239 240 242 243 243 243 243 244 246 245 245 246 247 249 252 254 254 255 255 256 258 259 261 263 265 266 269 271
248 245 245 242 240 237 237 236 236 235 234 234 236 237 240 241 242 243 244 245 243 243 243 245 245 246 246 247 248 251 253 254 256 256 256 257 258 260 262 264 266 268 270
252 248 247 244 242 239 240 239 236 234 235 236 237 239 240 242 243 244 245 245 244 243 244 245 245 246 247 247 249 251 253 255 257 256 256 257 258 260 262 264 265 267 270
Height
5860 5862 5864 5866 5867 5869 5870 5871 5872 5873 5874 5876 5877 5878 5878 5879 5879 5879 5879 5879 5880 5880 5880 5880 5880 5880 5880 5881 5881 5881 5881 5881 5881 5881 5880 5880 5880 5879 5878 5878 5877 5876 5875
5855 5857 5859 5861 5863 5865 5866 5868 5869 5870 5872 5873 5874 5875 5876 5877 5877 5878 5878 5878 5878 5879 5879 5879 5879 5879 5880 5880 5880 5880 5880 5880 5880 5880 5880 5879 5879 5879 5878 5877 5876 5875 5874
5850 5852 5854 5856 5859 5861 5863 5864 5866 5867 5868 5870 5871 5873 5874 5875 5875 5876 5876 5877 5877 5877 5878 5878 5878 5878 5878 5879 5879 5879 5879 5879 5879 5879 5879 5878 5878 5878 5877 5876 5876 5875 5874
5844 5846 5849 5851 5854 5856 5858 5860 5862 5863 5865 5866 5868 5869 5871 5872 5873 5874 5874 5875 5875 5876 5876 5877 5877 5877 5877 5877 5878 5878 5878 5878 5878 5878 5878 5877 5877 5877 5876 5876 5875 5874 5873
5838 5840 5843 5846 5848 5851 5853 5855 5857 5859 5861 5862 5864 5866 5868 5869 5870 5871 5872 5873 5873 5874 5874 5875 5875 5876 5876 5876 5876 5877 5877 5877 5877 5877 5877 5876 5876 5876 5875 5875 5874 5873 5872
5831 5834 5837 5840 5843 5845 5848 5850 5852 5854 5856 5858 5860 5862 5864 5866 5867 5868 5869 5870 5871 5872 5873 5873 5873 5874 5874 5875 5875 5875 5875 5875 5875 5875 5875 5875 5875 5874 5874 5873 5872 5871 5870
5823 5827 5830 5833 5836 5839 5842 5844 5847 5849 5852 5854 5856 5858 5860 5861 5863 5865 5866 5867 5868 5869 5870 5871 5871 5872 5872 5872 5873 5873 5873 5873 5874 5873 5873 5873 5873 5873 5872 5872 5871 5870 5869
5814 5819 5823 5826 5829 5833 5836 5838 5841 5843 5846 5849 5851 5853 5855 5857 5859 5861 5862 5864 5865 5866 5867 5868 5869 5869 5870 5870 5871 5871 5871 5871 5871 5871 5871 5871 5871 5871 5870 5870 5869 5868 5867
5805 5810 5814 5818 5822 5825 5829 5832 5835 5838 5840 5843 5846 5848 5850 5852 5854 5856 5858 5860 5861 5862 5864 5865 5866 5866 5867 5867 5868 5868 5869 5869 5869 5869 5869 5869 5869 5869 5868 5868 5867 5866 5865
5796 5800 5805 5809 5814 5818 5822 5825 5829 5831 5834 5837 5840 5842 5844 5847 5849 5851 5853 5855 5857 5858 5860 5861 5862 5863 5864 5865 5865 5866 5866 5866 5866 5866 5867 5867 5866 5866 5866 5865 5864 5863 5862
5786 5791 5795 5800 5805 5809 5814 5817 5821 5824 5827 5831 5833 5836 5839 5841 5844 5846 5848 5851 5852 5854 5855 5857 5858 5859 5860 5861 5862 5862 5863 5863 5863 5863 5864 5864 5864 5863 5863 5862 5861 5860 5859
5775 5780 5785 5791 5796 5800 5805 5809 5813 5817 5820 5824 5827 5830 5833 5835 5838 5840 5843 5845 5847 5849 5851 5852 5854 5855 5856 5857 5858 5858 5859 5860 5860 5860 5860 5860 5860 5860 5860 5859 5858 5857 5856
5763 5769 5775 5780 5786 5791 5796 5801 5805 5809 5813 5816 5820 5823 5826 5829 5832 5834 5837 5839 5842 5844 5846 5847 5849 5851 5852 5853 5854 5854 5855 5856 5856 5856 5856 5857 5856 5856 5856 5855 5855 5854 5853
5753 5759 5764 5770 5776 5781 5786 5792 5796 5801 5805 5809 5812 5816 5819 5822 5825 5828 5831 5833 5836 5838 5840 5842 5844 5845 5847 5848 5849 5850 5851 5851 5852 5852 5852 5852 5852 5852 5852 5851 5851 5850 5849
5742 5748 5754 5760 5766 5771 5777 5782 5787 5792 5796 5800 5804 5808 5811 5815 5818 5821 5824 5827 5829 5832 5834 5836 5838 5840 5841 5843 5844 5845 5846 5847 5847 5848 5848 5848 5848 5848 5848 5847 5847 5846 5845
5732 5738 5744 5749 5755 5761 5767 5772 5777 5782 5787 5791 5796 5800 5803 5807 5811 5814 5817 5820 5822 5825 5827 5830 5832 5834 5836 5837 5839 5840 5841 5841 5842 5842 5843 5843 5843 5843 5843 5842 5842 5841 5840
5722 5727 5733 5738 5744 5750 5757 5763 5768 5772 5777 5782 5787 5791 5795 5799 5802 5806 5809 5812 5815 5817 5820 5823 5825 5827 5829 5831 5833 5834 5835 5836 5836 5837 5837 5838 5838 5838 5837 5837 5837 5836 5835
5711 5716 5721 5727 5733 5740 5746 5752 5757 5762 5767 5772 5777 5782 5786 5790 5793 5797 5801 5804 5807 5810 5812 5815 5818 5820 5822 5824 5826 5827 5828 5829 5830 5831 5831 5832 5832 5832 5832 5831 5831 5830 5830
5701 5705 5711 5716 5722 5728 5735 5740 5746 5752 5757 5762 5767 5772 5776 5780 5784 5788 5791 5795 5798 5801 5804 5807 5810 5813 5815 5817 5818 5820 5821 5823 5823 5824 5825 5825 5825 5826 5825 5825 5825 5824 5824
5692 5696 5701 5706 5711 5717 5723 5729 5735 5741 5746 5751 5757 5762 5766 5770 5774 5778 5781 5785 5789 5792 5795 5799 5802 5804 5806 5808 5810 5812 5814 5815 5816 5817 5818 5818 5819 5819 5819 5818 5818 5818 5817
5684 5687 5692 5696 5701 5706 5712 5718 5724 5729 5735 5740 5746 5751 5755 5759 5764 5768 5771 5775 5779 5783 5786 5790 5793 5795 5797 5799 5802 5804 5805 5807 5808 5809 5810 5811 5811 5811 5811 5811 5811 5810 5810
5677 5680 5683 5687 5692 5696 5702 5707 5712 5718 5723 5729 5735 5740 5745 5749 5753 5757 5761 5765 5769 5773 5776 5780 5783 5785 5788 5790 5792 5794 5796 5798 5800 5801 5801 5802 5803 5803 5803 5803 5802 5802 5802
5671 5673 5676 5679 5683 5687 5692 5697 5701 5706 5711 5718 5723 5728 5734 5738 5742 5747 5751 5755 5758 5762 5766 5769 5773 5775 5778 5780 5782 5784 5786 5788 5790 5792 5792 5793 5793 5794 5794 5794 5793 5793 5793
5664 5666 5669 5671 5674 5678 5682 5687 5692 5696 5702 5708 5713 5718 5724 5727 5732 5736 5740 5743 5747 5751 5755 5758 5762 5765 5767 5769 5772 5774 5776 5778 5779 5781 5783 5783 5783 5784 5784 5784 5784 5784 5783
5658 5659 5661 5663 5666 5669 5673 5677 5682 5686 5692 5697 5702 5708 5712 5716 5720 5724 5728 5732 5736 5740 5744 5747 5750 5753 5756 5758 5761 5763 5765 5766 5767 5769 5771 5773 5773 5773 5773 5774 5774 5774 5773
5651 5652 5654 5655 5658 5660 5663 5667 5672 5677 5682 5687 5692 5696 5701 5705 5709 5713 5717 5720 5724 5728 5732 5735 5737 5741 5744 5746 5749 5751 5753 5755 5757 5758 5759 5760 5761 5762 5762 5762 5763 5763 5762